Flag for USA

Past Weather in 47°15'06"N, 122°25'22"W, USA — Yesterday and Last 2 Weeks

Now
46 °F

Passing clouds.


Feels Like: 42 °F
Forecast: 48 / 37 °F
Wind: 8 mph from Southwest

Location: Tacoma Narrows Airport

Current Time: Apr 2, 2020 at 1:16:06 pm

Latest Report: Apr 2, 2020 at 11:53 am


Visibility: 10 mi

Pressure: 30.19 "Hg

Humidity: 66%

Dew Point: 35 °F

Location of 47°15'06"N, 122°25'22"WLocation

Past Weather in 47°15'06"N, 122°25'22"W — Graph

°F

47°15'06"N, 122°25'22"W Temperature Yesterday

Maximum temperature yesterday: 48 °F (at 3:53 pm)
Minimum temperature yesterday: 37 °F (at 3:53 am)
Average temperature yesterday: 40 °F

High & Low Weather Summary for the Past Weeks

 TemperatureHumidityPressure
High58 °F (Mar 19, 4:53 pm)100% (Mar 19, 6:23 am)30.32 "Hg (Mar 19, 6:23 am)
Low36 °F (Mar 19, 4:53 am)41% (Mar 20, 5:53 pm)29.59 "Hg (Mar 30, 4:01 am)
Average43 °F84%30.01 "Hg
* Reported Mar 18 11:53 am — Apr 2 11:53 am, 47°15'06"N, 122°25'22"W. Weather by CustomWeather, © 2020

Note: Actual official high and low records may vary slightly from our data, if they occured in-between our weather recording intervals... More about our weather records

47°15'06"N, 122°25'22"W Weather History for the Previous 24 Hours

Scroll right to see more
 ConditionsComfort  
Time TempWeatherWind HumidityBarometerVisibility
11:53 am
Thu, Apr 2
46 °FPassing clouds.8 mph66%30.19 "Hg10 mi
10:53 am42 °FOvercast.7 mph79%30.20 "Hg10 mi
9:53 am41 °FBroken clouds.5 mph82%30.20 "Hg10 mi
8:53 am40 °FMostly cloudy.5 mph93%30.20 "Hg10 mi
7:53 am39 °FMostly cloudy.8 mph93%30.18 "Hg10 mi
7:27 am39 °FMostly cloudy.8 mph93%30.18 "Hg10 mi
7:18 am39 °FCloudy.8 mph93%30.17 "Hg10 mi
7:08 am39 °FMostly cloudy.6 mph93%30.18 "Hg10 mi
6:38 am39 °FMostly cloudy.5 mph93%30.17 "Hg10 mi
5:53 am39 °FOvercast.5 mph93%30.18 "Hg10 mi
4:53 am39 °FOvercast.No wind93%30.18 "Hg10 mi
3:53 am39 °FMostly cloudy.No wind93%30.18 "Hg10 mi
2:53 am38 °FOvercast.No wind90%30.16 "Hg10 mi
1:53 am39 °FOvercast.No wind82%30.16 "Hg10 mi
12:53 am40 °FOvercast.No wind73%30.15 "Hg10 mi
11:53 pm
Wed, Apr 1
38 °FOvercast.No wind86%30.15 "Hg10 mi
10:53 pm40 °FOvercast.No wind80%30.14 "Hg10 mi
9:53 pm38 °FPassing clouds.No wind86%30.14 "Hg10 mi
8:53 pm41 °FPassing clouds.No wind76%30.13 "Hg10 mi
7:53 pm42 °FPassing clouds.5 mph73%30.11 "Hg10 mi
6:53 pm45 °FPartly sunny.7 mph65%30.10 "Hg10 mi
5:53 pm46 °FScattered clouds.7 mph61%30.09 "Hg10 mi
4:53 pm47 °FScattered clouds.9 mph56%30.08 "Hg10 mi
3:53 pm48 °FScattered clouds.9 mph54%30.08 "Hg10 mi
2:53 pm47 °FBroken clouds.3 mph59%30.07 "Hg10 mi
1:53 pm47 °FBroken clouds.6 mph66%30.08 "Hg10 mi
Weather by CustomWeather, © 2020

See weather overview

Advertising